Location: Newark
(35.8833°N, 14.5000°E)
Time: 10:48:08
(UTC+00:00)

Transit 2A Rocket - Visible Passes

Search period start: 12 November 2019 00:00
Search period end: 22 November 2019 00:00
Orbit: 594 x 909 km, 66.7° (Epoch: 11 November)

Date Brightness Start Highest point End Pass type
(mag) Time Alt. Az. Time Alt. Az. Time Alt. Az.
16 Nov 7.3 05:04:57 10° NNE 05:06:19 11° NE 05:07:41 10° ENE visible
19 Nov 7.1 04:38:36 10° NNE 04:41:27 17° NE 04:44:22 10° E visible
21 Nov 5.7 04:54:54 10° NNW 04:59:08 45° ENE 05:03:36 10° SE visible
